| time (UTC) | temp C | wind direction | speed KPH | gust KPH | rain 1hr cm | rain 24hr cm | rain mn cm | humidity % | barometer mb |
| 20260508101518 | 0 | 34 | 0.0 | 1.6 | 0.00 | 0.10 | 0.00 | 95 | 1016.7 |
| 20260508100518 | 0 | 0.0 | 0.0 | 0.00 | 0.10 | 0.00 | 95 | 1016.6 | |
| 20260508095538 | 0 | 44 | 0.0 | 0.0 | 0.00 | 0.10 | 0.00 | 95 | 1016.5 |
| 20260508094538 | 0 | 43 | 0.0 | 1.6 | 0.00 | 0.10 | 0.00 | 95 | 1016.4 |
| 20260508093518 | 0 | 95 | 0.0 | 0.0 | 0.00 | 0.10 | 0.00 | 95 | 1016.3 |
| 20260508092535 | 0 | 125 | 0.0 | 1.6 | 0.00 | 0.10 | 0.00 | 94 | 1016.3 |
| 20260508091516 | 0 | 26 | 0.0 | 1.6 | 0.00 | 0.10 | 0.00 | 94 | 1016.2 |
| 20260508090516 | 0 | 0.0 | 0.0 | 0.00 | 0.10 | 0.00 | 94 | 1016.0 | |
| 20260508085536 | 0 | 40 | 0.0 | 4.8 | 0.00 | 0.10 | 0.00 | 94 | 1016.1 |
| 20260508084516 | 1 | 116 | 1.6 | 3.2 | 0.00 | 0.10 | 0.00 | 94 | 1015.9 |
| 20260508083516 | 1 | 0.0 | 0.0 | 0.00 | 0.10 | 0.00 | 94 | 1015.9 | |
| 20260508082517 | 1 | 119 | 0.0 | 1.6 | 0.00 | 0.10 | 0.00 | 94 | 1015.8 |
| 20260508081557 | 1 | 120 | 1.6 | 3.2 | 0.00 | 0.10 | 0.00 | 94 | 1015.6 |
| 20260508080517 | 1 | 324 | 0.0 | 1.6 | 0.00 | 0.10 | 0.00 | 94 | 1015.7 |
| 20260508075517 | 1 | 144 | 0.0 | 0.0 | 0.00 | 0.10 | 0.00 | 94 | 1015.7 |
| 20260508074537 | 1 | 95 | 0.0 | 1.6 | 0.00 | 0.10 | 0.00 | 94 | 1015.7 |
| 20260508073537 | 1 | 124 | 0.0 | 1.6 | 0.00 | 0.10 | 0.00 | 94 | 1015.6 |
| 20260508072517 | 2 | 0.0 | 0.0 | 0.00 | 0.10 | 0.00 | 94 | 1015.4 | |
| 20260508071538 | 2 | 142 | 0.0 | 3.2 | 0.00 | 0.10 | 0.00 | 94 | 1015.4 |
| 20260508070518 | 2 | 108 | 0.0 | 1.6 | 0.00 | 0.10 | 0.00 | 94 | 1015.5 |
| 20260508065518 | 2 | 340 | 0.0 | 1.6 | 0.00 | 0.10 | 0.00 | 94 | 1015.5 |
| 20260508064518 | 2 | 133 | 0.0 | 1.6 | 0.00 | 0.10 | 0.00 | 94 | 1015.4 |
| 20260508063519 | 2 | 126 | 0.0 | 3.2 | 0.00 | 0.10 | 0.00 | 94 | 1015.5 |
| 20260508062516 | 2 | 128 | 0.0 | 3.2 | 0.00 | 0.10 | 0.00 | 94 | 1015.5 |
| 20260508061516 | 3 | 133 | 0.0 | 1.6 | 0.00 | 0.10 | 0.00 | 94 | 1015.5 |
| 20260508060516 | 3 | 116 | 0.0 | 1.6 | 0.00 | 0.10 | 0.00 | 93 | 1015.6 |
| 20260508055516 | 3 | 124 | 0.0 | 1.6 | 0.00 | 0.10 | 0.00 | 93 | 1015.6 |
| 20260508054637 | 3 | 155 | 0.0 | 1.6 | 0.00 | 0.10 | 0.00 | 93 | 1015.5 |
| 20260508053517 | 3 | 71 | 0.0 | 3.2 | 0.00 | 0.10 | 0.00 | 93 | 1015.3 |
| 20260508052517 | 3 | 118 | 0.0 | 3.2 | 0.00 | 0.10 | 0.00 | 93 | 1015.1 |
| 20260508051517 | 4 | 111 | 0.0 | 1.6 | 0.00 | 0.10 | 0.00 | 93 | 1015.0 |
| 20260508050517 | 4 | 170 | 0.0 | 1.6 | 0.00 | 0.10 | 0.00 | 93 | 1014.9 |
| 20260508045517 | 4 | 111 | 0.0 | 3.2 | 0.00 | 0.10 | 0.00 | 92 | 1014.7 |
| 20260508044517 | 4 | 29 | 1.6 | 4.8 | 0.00 | 0.10 | 0.00 | 92 | 1014.6 |
| 20260508043538 | 5 | 125 | 0.0 | 3.2 | 0.00 | 0.10 | 0.00 | 92 | 1014.6 |
| 20260508042518 | 5 | 140 | 0.0 | 3.2 | 0.00 | 0.10 | 0.00 | 92 | 1014.7 |
| 20260508041518 | 5 | 144 | 0.0 | 3.2 | 0.00 | 0.10 | 0.00 | 91 | 1014.6 |
| 20260508040518 | 5 | 76 | 0.0 | 1.6 | 0.00 | 0.10 | 0.00 | 90 | 1014.5 |
| 20260508035518 | 5 | 188 | 0.0 | 3.2 | 0.00 | 0.10 | 0.10 | 90 | 1014.5 |
| 20260508034518 | 6 | 147 | 0.0 | 4.8 | 0.00 | 0.10 | 0.10 | 89 | 1014.3 |
| 20260508033515 | 6 | 117 | 0.0 | 4.8 | 0.00 | 0.10 | 0.10 | 89 | 1014.3 |
| 20260508032536 | 6 | 155 | 0.0 | 3.2 | 0.00 | 0.10 | 0.10 | 88 | 1014.3 |
| 20260508031516 | 6 | 53 | 1.6 | 4.8 | 0.00 | 0.10 | 0.10 | 87 | 1014.3 |
| 20260508030516 | 7 | 50 | 1.6 | 4.8 | 0.00 | 0.10 | 0.10 | 86 | 1014.1 |
| 20260508025517 | 7 | 9 | 1.6 | 4.8 | 0.00 | 0.10 | 0.10 | 86 | 1014.0 |
| 20260508024636 | 7 | 357 | 1.6 | 4.8 | 0.00 | 0.10 | 0.10 | 84 | 1014.0 |
| 20260508023516 | 8 | 250 | 1.6 | 4.8 | 0.00 | 0.10 | 0.10 | 82 | 1013.8 |
| 20260508022517 | 8 | 305 | 1.6 | 4.8 | 0.00 | 0.10 | 0.10 | 80 | 1013.7 |
| 20260508021537 | 8 | 143 | 1.6 | 9.7 | 0.00 | 0.13 | 0.10 | 79 | 1013.5 |
| 20260508020517 | 8 | 355 | 1.6 | 3.2 | 0.00 | 0.13 | 0.10 | 77 | 1013.4 |
| 20260508015518 | 8 | 289 | 1.6 | 9.7 | 0.00 | 0.15 | 0.10 | 77 | 1013.2 |
| 20260508014517 | 8 | 346 | 0.0 | 3.2 | 0.00 | 0.20 | 0.10 | 78 | 1013.1 |
| 20260508013518 | 8 | 354 | 1.6 | 4.8 | 0.00 | 0.25 | 0.10 | 80 | 1013.0 |
| 20260508012518 | 8 | 78 | 0.0 | 3.2 | 0.00 | 0.30 | 0.10 | 82 | 1012.9 |
| 20260508011518 | 8 | 337 | 0.0 | 3.2 | 0.00 | 0.36 | 0.10 | 82 | 1012.8 |
| 20260508010518 | 9 | 135 | 0.0 | 1.6 | 0.00 | 0.41 | 0.10 | 80 | 1012.6 |
| 20260508005519 | 10 | 132 | 0.0 | 3.2 | 0.00 | 0.46 | 0.10 | 79 | 1012.5 |
| 20260508004518 | 10 | 19 | 0.0 | 3.2 | 0.00 | 0.48 | 0.10 | 76 | 1012.4 |
| 20260508003516 | 11 | 5 | 0.0 | 3.2 | 0.00 | 0.51 | 0.10 | 73 | 1012.3 |
| 20260508002516 | 11 | 214 | 0.0 | 3.2 | 0.00 | 0.51 | 0.10 | 70 | 1012.3 |
| 20260508001516 | 12 | 319 | 0.0 | 3.2 | 0.00 | 0.51 | 0.10 | 66 | 1012.2 |
| 20260508000517 | 12 | 151 | 1.6 | 3.2 | 0.00 | 0.51 | 0.10 | 63 | 1012.0 |
| 20260507235536 | 12 | 21 | 3.2 | 6.4 | 0.00 | 0.51 | 0.10 | 60 | 1011.9 |
| 20260507234517 | 13 | 10 | 3.2 | 12.9 | 0.00 | 0.51 | 0.10 | 60 | 1011.8 |
| 20260507233517 | 13 | 16 | 1.6 | 6.4 | 0.00 | 0.51 | 0.10 | 60 | 1011.8 |
| 20260507232517 | 13 | 5 | 1.6 | 6.4 | 0.00 | 0.51 | 0.10 | 57 | 1011.7 |
| 20260507231517 | 14 | 341 | 3.2 | 12.9 | 0.00 | 0.51 | 0.10 | 56 | 1011.6 |
| 20260507230517 | 14 | 353 | 4.8 | 14.5 | 0.00 | 0.51 | 0.10 | 54 | 1011.5 |
| 20260507225518 | 14 | 335 | 3.2 | 8.0 | 0.00 | 0.51 | 0.10 | 56 | 1011.3 |
| 20260507224538 | 14 | 324 | 4.8 | 12.9 | 0.00 | 0.51 | 0.10 | 55 | 1011.3 |
| 20260507223518 | 14 | 348 | 3.2 | 12.9 | 0.00 | 0.51 | 0.10 | 58 | 1011.3 |
| 20260507222538 | 15 | 25 | 3.2 | 14.5 | 0.00 | 0.51 | 0.10 | 57 | 1011.3 |
| 20260507221519 | 15 | 0 | 1.6 | 6.4 | 0.00 | 0.51 | 0.10 | 56 | 1011.2 |
| 20260507220516 | 15 | 355 | 3.2 | 6.4 | 0.00 | 0.51 | 0.10 | 56 | 1011.2 |
| 20260507215516 | 15 | 350 | 3.2 | 8.0 | 0.00 | 0.51 | 0.10 | 56 | 1011.1 |
| 20260507214516 | 15 | 298 | 3.2 | 9.7 | 0.00 | 0.51 | 0.10 | 56 | 1011.0 |
| 20260507213516 | 15 | 292 | 3.2 | 9.7 | 0.00 | 0.51 | 0.10 | 57 | 1010.9 |
| 20260507212516 | 15 | 242 | 3.2 | 9.7 | 0.00 | 0.51 | 0.10 | 56 | 1010.8 |
| 20260507211516 | 16 | 33 | 3.2 | 14.5 | 0.00 | 0.51 | 0.10 | 57 | 1010.7 |
| 20260507210516 | 16 | 8 | 3.2 | 11.3 | 0.00 | 0.51 | 0.10 | 59 | 1010.6 |
| 20260507205537 | 15 | 287 | 3.2 | 9.7 | 0.00 | 0.51 | 0.10 | 59 | 1010.7 |
| 20260507204517 | 15 | 299 | 1.6 | 9.7 | 0.00 | 0.51 | 0.10 | 59 | 1010.7 |
| 20260507203517 | 16 | 329 | 4.8 | 11.3 | 0.00 | 0.51 | 0.10 | 58 | 1010.6 |
| 20260507202517 | 16 | 357 | 3.2 | 6.4 | 0.00 | 0.51 | 0.10 | 59 | 1010.6 |
| 20260507201518 | 16 | 12 | 3.2 | 9.7 | 0.00 | 0.51 | 0.10 | 59 | 1010.4 |
| 20260507200518 | 16 | 265 | 3.2 | 8.0 | 0.00 | 0.51 | 0.10 | 60 | 1010.4 |
| 20260507195518 | 15 | 353 | 4.8 | 11.3 | 0.00 | 0.51 | 0.10 | 61 | 1010.5 |
| 20260507194518 | 15 | 5 | 3.2 | 11.3 | 0.00 | 0.51 | 0.10 | 64 | 1010.8 |
| 20260507193518 | 15 | 19 | 1.6 | 6.4 | 0.00 | 0.51 | 0.10 | 65 | 1010.9 |
| 20260507192519 | 16 | 344 | 3.2 | 8.0 | 0.00 | 0.51 | 0.10 | 64 | 1011.2 |
| 20260507191515 | 15 | 331 | 1.6 | 6.4 | 0.00 | 0.51 | 0.10 | 69 | 1011.4 |
| 20260507190518 | 14 | 40 | 3.2 | 6.4 | 0.00 | 0.51 | 0.10 | 69 | 1011.5 |
| 20260507185516 | 14 | 136 | 3.2 | 8.0 | 0.00 | 0.51 | 0.10 | 72 | 1011.6 |
| 20260507184520 | 13 | 339 | 1.6 | 4.8 | 0.00 | 0.51 | 0.10 | 75 | 1011.6 |
| 20260507183559 | 12 | 17 | 1.6 | 3.2 | 0.08 | 0.51 | 0.10 | 81 | 1011.7 |
| 20260507182519 | 12 | 32 | 1.6 | 4.8 | 0.08 | 0.51 | 0.10 | 80 | 1011.8 |
| 20260507181520 | 12 | 40 | 1.6 | 3.2 | 0.08 | 0.51 | 0.10 | 85 | 1011.7 |
| 20260507180540 | 12 | 3 | 1.6 | 3.2 | 0.08 | 0.51 | 0.10 | 85 | 1011.7 |
| 20260507175520 | 12 | 66 | 1.6 | 3.2 | 0.08 | 0.51 | 0.10 | 88 | 1011.7 |
| 20260507174520 | 12 | 45 | 1.6 | 3.2 | 0.08 | 0.51 | 0.10 | 83 | 1011.7 |
| 20260507173520 | 12 | 2 | 1.6 | 3.2 | 0.03 | 0.43 | 0.03 | 85 | 1011.8 |
| 20260507172520 | 11 | 7 | 1.6 | 4.8 | 0.03 | 0.43 | 0.03 | 82 | 1011.9 |
| 20260507171521 | 11 | 28 | 1.6 | 3.2 | 0.00 | 0.43 | 0.00 | 84 | 1011.9 |
| 20260507170520 | 11 | 347 | 1.6 | 4.8 | 0.00 | 0.43 | 0.00 | 85 | 1012.1 |
| 20260507165521 | 11 | 11 | 1.6 | 4.8 | 0.00 | 0.43 | 0.00 | 85 | 1012.0 |
| 20260507164521 | 11 | 7 | 1.6 | 4.8 | 0.00 | 0.43 | 0.00 | 85 | 1012.1 |
| 20260507163521 | 11 | 14 | 1.6 | 3.2 | 0.00 | 0.43 | 0.00 | 86 | 1012.1 |
| 20260507162542 | 11 | 347 | 1.6 | 3.2 | 0.00 | 0.48 | 0.00 | 85 | 1012.3 |
| 20260507161522 | 11 | 38 | 0.0 | 1.6 | 0.00 | 0.58 | 0.00 | 86 | 1012.3 |
| 20260507160522 | 11 | 41 | 1.6 | 4.8 | 0.00 | 0.61 | 0.00 | 82 | 1012.3 |
| 20260507155522 | 11 | 2 | 1.6 | 4.8 | 0.00 | 0.61 | 0.00 | 82 | 1012.2 |
| 20260507154522 | 11 | 19 | 1.6 | 4.8 | 0.00 | 0.61 | 0.00 | 83 | 1012.4 |
| 20260507153522 | 11 | 231 | 1.6 | 4.8 | 0.00 | 0.61 | 0.00 | 83 | 1012.5 |
| 20260507152522 | 11 | 327 | 0.0 | 1.6 | 0.00 | 0.61 | 0.00 | 85 | 1012.3 |
| 20260507151523 | 11 | 137 | 1.6 | 4.8 | 0.00 | 0.61 | 0.00 | 86 | 1012.4 |
| 20260507150522 | 11 | 141 | 1.6 | 4.8 | 0.00 | 0.61 | 0.00 | 86 | 1012.4 |
| 20260507145523 | 11 | 23 | 0.0 | 0.0 | 0.00 | 0.61 | 0.00 | 86 | 1012.5 |
| 20260507144523 | 11 | 17 | 0.0 | 1.6 | 0.00 | 0.64 | 0.00 | 87 | 1012.5 |
| 20260507143523 | 11 | 305 | 0.0 | 1.6 | 0.00 | 0.64 | 0.00 | 84 | 1012.2 |
| 20260507142523 | 11 | 67 | 1.6 | 4.8 | 0.00 | 0.64 | 0.00 | 84 | 1012.2 |
| 20260507141524 | 11 | 344 | 1.6 | 3.2 | 0.00 | 0.64 | 0.00 | 85 | 1012.3 |
| 20260507140523 | 11 | 77 | 1.6 | 4.8 | 0.00 | 0.64 | 0.00 | 83 | 1012.4 |
| 20260507135521 | 11 | 24 | 1.6 | 8.0 | 0.00 | 0.64 | 0.00 | 86 | 1012.3 |
| 20260507134524 | 11 | 24 | 1.6 | 3.2 | 0.00 | 0.64 | 0.00 | 87 | 1012.2 |
| 20260507133524 | 11 | 7 | 1.6 | 3.2 | 0.00 | 0.66 | 0.00 | 87 | 1012.5 |
| 20260507132544 | 11 | 24 | 1.6 | 3.2 | 0.00 | 0.69 | 0.00 | 89 | 1012.5 |
| 20260507131524 | 11 | 21 | 1.6 | 3.2 | 0.00 | 0.79 | 0.00 | 89 | 1012.6 |
| 20260507130525 | 11 | 31 | 1.6 | 4.8 | 0.00 | 0.79 | 0.00 | 89 | 1012.8 |
| 20260507125525 | 11 | 10 | 1.6 | 3.2 | 0.00 | 0.79 | 0.00 | 90 | 1012.8 |
| 20260507124525 | 11 | 107 | 1.6 | 3.2 | 0.00 | 0.81 | 0.00 | 90 | 1012.7 |
| 20260507123525 | 11 | 6 | 1.6 | 3.2 | 0.00 | 0.81 | 0.00 | 90 | 1012.8 |
| 20260507122525 | 11 | 21 | 1.6 | 4.8 | 0.00 | 0.81 | 0.00 | 89 | 1012.6 |
| 20260507121526 | 11 | 18 | 1.6 | 3.2 | 0.00 | 0.81 | 0.00 | 89 | 1012.5 |
| 20260507120526 | 11 | 117 | 0.0 | 1.6 | 0.00 | 0.81 | 0.00 | 89 | 1012.6 |
| 20260507115526 | 11 | 60 | 0.0 | 3.2 | 0.00 | 0.81 | 0.00 | 90 | 1012.3 |
| 20260507114526 | 11 | 20 | 1.6 | 6.4 | 0.00 | 0.81 | 0.00 | 91 | 1012.4 |
| 20260507113547 | 11 | 35 | 1.6 | 4.8 | 0.00 | 0.81 | 0.00 | 92 | 1012.3 |
| 20260507112526 | 11 | 141 | 0.0 | 3.2 | 0.00 | 0.81 | 0.00 | 92 | 1012.4 |
| 20260507111527 | 11 | 15 | 1.6 | 3.2 | 0.00 | 0.81 | 0.00 | 93 | 1012.3 |
| 20260507110547 | 11 | 56 | 0.0 | 3.2 | 0.00 | 0.81 | 0.00 | 94 | 1011.9 |
| 20260507105527 | 11 | 0.0 | 0.0 | 0.00 | 0.81 | 0.00 | 94 | 1011.8 | |
| 20260507104548 | 11 | 26 | 1.6 | 3.2 | 0.00 | 0.81 | 0.00 | 92 | 1011.8 |
| 20260507103528 | 11 | 105 | 1.6 | 3.2 | 0.00 | 0.81 | 0.00 | 92 | 1011.7 |
| 20260507102527 | 11 | 76 | 1.6 | 4.8 | 0.00 | 0.86 | 0.00 | 93 | 1011.6 |